owner,sensor,date,latitude,longitude,vertical_datum,wind_speed,wind_to_direction,wind_speed_of_gust,qcFlag 
DISL,ioos:station:DISL:DISL:1,2013-08-01T00:00:00Z,30.2513,-88.0778,9.68,1.64,256.5,-9999.0,'1111122,1111122,1111122' 
DISL,ioos:station:DISL:DISL:1,2013-08-01T00:30:00Z,30.2513,-88.0778,9.68,1.91,239.4,-9999.0,'1111122,1111122,1111122' 
DISL,ioos:station:DISL:DISL:1,2013-08-01T01:00:00Z,30.2513,-88.0778,9.68,2.36,233.3,-9999.0,'1111122,1111122,1111122' 
DISL,ioos:station:DISL:DISL:1,2013-08-01T01:30:00Z,30.2513,-88.0778,9.68,2.01,221.2,-9999.0,'1111122,1111122,1111122' 
DISL,ioos:station:DISL:DISL:1,2013-08-01T02:00:00Z,30.2513,-88.0778,9.68,2.05,230.6,-9999.0,'1111122,1111122,1111122' 
DISL,ioos:station:DISL:DISL:1,2013-08-01T02:30:00Z,30.2513,-88.0778,9.68,2.4,219.2,-9999.0,'1111122,1111122,1111122' 
DISL,ioos:station:DISL:DISL:1,2013-08-01T03:00:00Z,30.2513,-88.0778,9.68,1.98,219.2,-9999.0,'1111122,1111122,1111122' 
DISL,ioos:station:DISL:DISL:1,2013-08-01T03:30:00Z,30.2513,-88.0778,9.68,2.59,220.2,-9999.0,'1111122,1111122,1111122' 
DISL,ioos:station:DISL:DISL:1,2013-08-01T04:00:00Z,30.2513,-88.0778,9.68,2.6,245.5,-9999.0,'1111122,1111122,1111122' 
DISL,ioos:station:DISL:DISL:1,2013-08-01T04:30:00Z,30.2513,-88.0778,9.68,2.5,232.2,-9999.0,'1111122,1111122,1111122' 
DISL,ioos:station:DISL:DISL:1,2013-08-01T05:00:00Z,30.2513,-88.0778,9.68,2.27,240.5,-9999.0,'1111122,1111122,1111122' 
DISL,ioos:station:DISL:DISL:1,2013-08-01T05:30:00Z,30.2513,-88.0778,9.68,2.83,236.2,-9999.0,'1111122,1111122,1111122' 
DISL,ioos:station:DISL:DISL:1,2013-08-01T06:00:00Z,30.2513,-88.0778,9.68,2.63,249.0,-9999.0,'1111122,1111122,1111122' 
DISL,ioos:station:DISL:DISL:1,2013-08-01T06:30:00Z,30.2513,-88.0778,9.68,2.78,249.2,-9999.0,'1111122,1111122,1111122' 
DISL,ioos:station:DISL:DISL:1,2013-08-01T07:00:00Z,30.2513,-88.0778,9.68,2.66,254.3,-9999.0,'1111122,1111122,1111122' 
DISL,ioos:station:DISL:DISL:1,2013-08-01T07:30:00Z,30.2513,-88.0778,9.68,2.18,265.0,-9999.0,'1111122,1111122,1111122' 
DISL,ioos:station:DISL:DISL:1,2013-08-01T08:00:00Z,30.2513,-88.0778,9.68,2.49,265.4,-9999.0,'1111122,1111122,1111122' 
DISL,ioos:station:DISL:DISL:1,2013-08-01T08:30:00Z,30.2513,-88.0778,9.68,2.55,281.9,-9999.0,'1111122,1111122,1111122' 
DISL,ioos:station:DISL:DISL:1,2013-08-01T09:00:00Z,30.2513,-88.0778,9.68,2.5,283.5,-9999.0,'1111122,1111122,1111122' 
DISL,ioos:station:DISL:DISL:1,2013-08-01T09:30:00Z,30.2513,-88.0778,9.68,2.45,276.0,-9999.0,'1111122,1111122,1111122' 
DISL,ioos:station:DISL:DISL:1,2013-08-01T10:00:00Z,30.2513,-88.0778,9.68,2.63,281.6,-9999.0,'1111122,1111122,1111122' 
DISL,ioos:station:DISL:DISL:1,2013-08-01T10:30:00Z,30.2513,-88.0778,9.68,4.2,287.1,-9999.0,'1111122,1111122,1111122' 
DISL,ioos:station:DISL:DISL:1,2013-08-01T11:00:00Z,30.2513,-88.0778,9.68,3.44,283.4,-9999.0,'1111122,1111122,1111122' 
DISL,ioos:station:DISL:DISL:1,2013-08-01T11:30:00Z,30.2513,-88.0778,9.68,3.83,291.6,-9999.0,'1111122,1111122,1111122' 
DISL,ioos:station:DISL:DISL:1,2013-08-01T12:00:00Z,30.2513,-88.0778,9.68,4.02,311.6,-9999.0,'1111122,1111122,1111122' 
DISL,ioos:station:DISL:DISL:1,2013-08-01T12:30:00Z,30.2513,-88.0778,9.68,3.8,272.5,-9999.0,'1111122,1111122,1111122' 
DISL,ioos:station:DISL:DISL:1,2013-08-01T13:00:00Z,30.2513,-88.0778,9.68,2.06,238.3,-9999.0,'1111122,1111122,1111122' 
DISL,ioos:station:DISL:DISL:1,2013-08-01T13:30:00Z,30.2513,-88.0778,9.68,3.61,298.4,-9999.0,'1111122,1111122,1111122' 
DISL,ioos:station:DISL:DISL:1,2013-08-01T14:00:00Z,30.2513,-88.0778,9.68,3.72,286.4,-9999.0,'1111122,1111122,1111122' 
DISL,ioos:station:DISL:DISL:1,2013-08-01T14:30:00Z,30.2513,-88.0778,9.68,4.1,288.3,-9999.0,'1111122,1111122,1111122' 
DISL,ioos:station:DISL:DISL:1,2013-08-01T15:00:00Z,30.2513,-88.0778,9.68,5.04,295.1,-9999.0,'1111122,1111122,1111122' 
DISL,ioos:station:DISL:DISL:1,2013-08-01T15:30:00Z,30.2513,-88.0778,9.68,3.32,286.5,-9999.0,'1111122,1111122,1111122' 
DISL,ioos:station:DISL:DISL:1,2013-08-01T16:00:00Z,30.2513,-88.0778,9.68,4.83,289.1,-9999.0,'1111122,1111122,1111122' 
DISL,ioos:station:DISL:DISL:1,2013-08-01T16:30:00Z,30.2513,-88.0778,9.68,3.41,279.5,-9999.0,'1111122,1111122,1111122' 
DISL,ioos:station:DISL:DISL:1,2013-08-01T17:00:00Z,30.2513,-88.0778,9.68,4.02,298.0,-9999.0,'1111122,1111122,1111122' 
DISL,ioos:station:DISL:DISL:1,2013-08-01T17:30:00Z,30.2513,-88.0778,9.68,3.5,288.0,-9999.0,'1111122,1111122,1111122' 
DISL,ioos:station:DISL:DISL:1,2013-08-01T18:00:00Z,30.2513,-88.0778,9.68,3.07,296.5,-9999.0,'1111122,1111122,1111122' 
DISL,ioos:station:DISL:DISL:1,2013-08-01T18:30:00Z,30.2513,-88.0778,9.68,3.8,251.7,-9999.0,'1111122,1111122,1111122' 
DISL,ioos:station:DISL:DISL:1,2013-08-01T19:00:00Z,30.2513,-88.0778,9.68,3.96,240.8,-9999.0,'1111122,1111122,1111122' 
DISL,ioos:station:DISL:DISL:1,2013-08-01T19:30:00Z,30.2513,-88.0778,9.68,3.47,248.9,-9999.0,'1111122,1111122,1111122' 
DISL,ioos:station:DISL:DISL:1,2013-08-01T20:00:00Z,30.2513,-88.0778,9.68,3.43,249.3,-9999.0,'1111122,1111122,1111122' 
DISL,ioos:station:DISL:DISL:1,2013-08-01T20:30:00Z,30.2513,-88.0778,9.68,9.85,332.3,-9999.0,'1111122,1111122,1111122' 
DISL,ioos:station:DISL:DISL:1,2013-08-01T21:00:00Z,30.2513,-88.0778,9.68,8.11,57.13,-9999.0,'1111122,1111122,1111122' 
DISL,ioos:station:DISL:DISL:1,2013-08-01T21:30:00Z,30.2513,-88.0778,9.68,3.99,83.2,-9999.0,'1111122,1111122,1111122' 
DISL,ioos:station:DISL:DISL:1,2013-08-01T22:00:00Z,30.2513,-88.0778,9.68,1.5,221.9,-9999.0,'1111122,1111122,1111122' 
DISL,ioos:station:DISL:DISL:1,2013-08-01T22:30:00Z,30.2513,-88.0778,9.68,1.06,203.4,-9999.0,'1111122,1111122,1111122' 
DISL,ioos:station:DISL:DISL:1,2013-08-01T23:00:00Z,30.2513,-88.0778,9.68,2.12,340.5,-9999.0,'1111122,1111122,1111122' 
DISL,ioos:station:DISL:DISL:1,2013-08-01T23:30:00Z,30.2513,-88.0778,9.68,1.88,284.6,-9999.0,'1111122,1111122,1111122' 
DISL,ioos:station:DISL:DISL:1,2013-08-02T00:00:00Z,30.2513,-88.0778,9.68,1.79,309.8,-9999.0,'1111122,1111122,1111122' 
DISL,ioos:station:DISL:DISL:1,2013-08-02T00:30:00Z,30.2513,-88.0778,9.68,3.7,327.5,-9999.0,'1111122,1111122,1111122' 
DISL,ioos:station:DISL:DISL:1,2013-08-02T01:00:00Z,30.2513,-88.0778,9.68,2.76,313.6,-9999.0,'1111122,1111122,1111122' 
DISL,ioos:station:DISL:DISL:1,2013-08-02T01:30:00Z,30.2513,-88.0778,9.68,2.85,1.813,-9999.0,'1111122,1111122,1111122' 
DISL,ioos:station:DISL:DISL:1,2013-08-02T02:00:00Z,30.2513,-88.0778,9.68,1.02,287.1,-9999.0,'1111122,1111122,1111122' 
DISL,ioos:station:DISL:DISL:1,2013-08-02T02:30:00Z,30.2513,-88.0778,9.68,1.57,64.81,-9999.0,'1111122,1111122,1111122' 
DISL,ioos:station:DISL:DISL:1,2013-08-02T03:00:00Z,30.2513,-88.0778,9.68,0.62,154.4,-9999.0,'1111122,1111122,1111122' 
DISL,ioos:station:DISL:DISL:1,2013-08-02T03:30:00Z,30.2513,-88.0778,9.68,0.46,304.0,-9999.0,'1111122,1111122,1111122' 
DISL,ioos:station:DISL:DISL:1,2013-08-02T04:00:00Z,30.2513,-88.0778,9.68,0.31,23.34,-9999.0,'1111122,1111122,1111122' 
DISL,ioos:station:DISL:DISL:1,2013-08-02T04:30:00Z,30.2513,-88.0778,9.68,1.81,132.2,-9999.0,'1111122,1111122,1111122' 
DISL,ioos:station:DISL:DISL:1,2013-08-02T05:00:00Z,30.2513,-88.0778,9.68,1.2,134.8,-9999.0,'1111122,1111122,1111122' 
DISL,ioos:station:DISL:DISL:1,2013-08-02T05:30:00Z,30.2513,-88.0778,9.68,2.35,108.3,-9999.0,'1111122,1111122,1111122' 
DISL,ioos:station:DISL:DISL:1,2013-08-02T06:00:00Z,30.2513,-88.0778,9.68,1.55,147.3,-9999.0,'1111122,1111122,1111122' 
DISL,ioos:station:DISL:DISL:1,2013-08-02T06:30:00Z,30.2513,-88.0778,9.68,1.57,169.8,-9999.0,'1111122,1111122,1111122' 
DISL,ioos:station:DISL:DISL:1,2013-08-02T07:00:00Z,30.2513,-88.0778,9.68,0.22,132.9,-9999.0,'1111122,1111122,1111122' 
DISL,ioos:station:DISL:DISL:1,2013-08-02T07:30:00Z,30.2513,-88.0778,9.68,0.29,204.5,-9999.0,'1111122,1111122,1111122' 
DISL,ioos:station:DISL:DISL:1,2013-08-02T08:00:00Z,30.2513,-88.0778,9.68,0.82,221.2,-9999.0,'1111122,1111122,1111122' 
DISL,ioos:station:DISL:DISL:1,2013-08-02T08:30:00Z,30.2513,-88.0778,9.68,0.62,292.2,-9999.0,'1111122,1111122,1111122' 
DISL,ioos:station:DISL:DISL:1,2013-08-02T09:00:00Z,30.2513,-88.0778,9.68,1.41,342.5,-9999.0,'1111122,1111122,1111122' 
DISL,ioos:station:DISL:DISL:1,2013-08-02T09:30:00Z,30.2513,-88.0778,9.68,2.18,26.46,-9999.0,'1111122,1111122,1111122' 
DISL,ioos:station:DISL:DISL:1,2013-08-02T10:00:00Z,30.2513,-88.0778,9.68,2.62,29.25,-9999.0,'1111122,1111122,1111122' 
DISL,ioos:station:DISL:DISL:1,2013-08-02T10:30:00Z,30.2513,-88.0778,9.68,2.07,28.81,-9999.0,'1111122,1111122,1111122' 
DISL,ioos:station:DISL:DISL:1,2013-08-02T11:00:00Z,30.2513,-88.0778,9.68,2.67,30.42,-9999.0,'1111122,1111122,1111122' 
DISL,ioos:station:DISL:DISL:1,2013-08-02T11:30:00Z,30.2513,-88.0778,9.68,2.98,44.85,-9999.0,'1111122,1111122,1111122' 
DISL,ioos:station:DISL:DISL:1,2013-08-02T12:00:00Z,30.2513,-88.0778,9.68,3.41,29.68,-9999.0,'1111122,1111122,1111122' 
DISL,ioos:station:DISL:DISL:1,2013-08-02T12:30:00Z,30.2513,-88.0778,9.68,3.26,24.5,-9999.0,'1111122,1111122,1111122' 
DISL,ioos:station:DISL:DISL:1,2013-08-02T13:00:00Z,30.2513,-88.0778,9.68,3.46,37.55,-9999.0,'1111122,1111122,1111122' 
DISL,ioos:station:DISL:DISL:1,2013-08-02T13:30:00Z,30.2513,-88.0778,9.68,3.32,42.78,-9999.0,'1111122,1111122,1111122' 
DISL,ioos:station:DISL:DISL:1,2013-08-02T14:00:00Z,30.2513,-88.0778,9.68,3.78,42.61,-9999.0,'1111122,1111122,1111122' 
DISL,ioos:station:DISL:DISL:1,2013-08-02T14:30:00Z,30.2513,-88.0778,9.68,3.64,47.67,-9999.0,'1111122,1111122,1111122' 
DISL,ioos:station:DISL:DISL:1,2013-08-02T15:00:00Z,30.2513,-88.0778,9.68,2.46,47.85,-9999.0,'1111122,1111122,1111122' 
DISL,ioos:station:DISL:DISL:1,2013-08-02T15:30:00Z,30.2513,-88.0778,9.68,2.66,32.63,-9999.0,'1111122,1111122,1111122' 
DISL,ioos:station:DISL:DISL:1,2013-08-02T16:00:00Z,30.2513,-88.0778,9.68,2.08,35.26,-9999.0,'1111122,1111122,1111122' 
DISL,ioos:station:DISL:DISL:1,2013-08-02T16:30:00Z,30.2513,-88.0778,9.68,1.98,33.52,-9999.0,'1111122,1111122,1111122' 
DISL,ioos:station:DISL:DISL:1,2013-08-02T17:00:00Z,30.2513,-88.0778,9.68,1.46,87.0,-9999.0,'1111122,1111122,1111122' 
DISL,ioos:station:DISL:DISL:1,2013-08-02T17:30:00Z,30.2513,-88.0778,9.68,1.32,114.4,-9999.0,'1111122,1111122,1111122' 
DISL,ioos:station:DISL:DISL:1,2013-08-02T18:00:00Z,30.2513,-88.0778,9.68,1.22,114.3,-9999.0,'1111122,1111122,1111122' 
DISL,ioos:station:DISL:DISL:1,2013-08-02T18:30:00Z,30.2513,-88.0778,9.68,1.96,142.3,-9999.0,'1111122,1111122,1111122' 
DISL,ioos:station:DISL:DISL:1,2013-08-02T19:00:00Z,30.2513,-88.0778,9.68,2.43,184.0,-9999.0,'1111122,1111122,1111122' 
DISL,ioos:station:DISL:DISL:1,2013-08-02T19:30:00Z,30.2513,-88.0778,9.68,3.24,189.0,-9999.0,'1111122,1111122,1111122' 
DISL,ioos:station:DISL:DISL:1,2013-08-02T20:00:00Z,30.2513,-88.0778,9.68,2.78,197.0,-9999.0,'1111122,1111122,1111122' 
DISL,ioos:station:DISL:DISL:1,2013-08-02T20:30:00Z,30.2513,-88.0778,9.68,2.88,185.9,-9999.0,'1111122,1111122,1111122' 
DISL,ioos:station:DISL:DISL:1,2013-08-02T21:00:00Z,30.2513,-88.0778,9.68,2.76,206.6,-9999.0,'1111122,1111122,1111122' 
DISL,ioos:station:DISL:DISL:1,2013-08-02T21:30:00Z,30.2513,-88.0778,9.68,2.84,189.4,-9999.0,'1111122,1111122,1111122' 
DISL,ioos:station:DISL:DISL:1,2013-08-02T22:00:00Z,30.2513,-88.0778,9.68,3.2,190.5,-9999.0,'1111122,1111122,1111122' 
DISL,ioos:station:DISL:DISL:1,2013-08-02T22:30:00Z,30.2513,-88.0778,9.68,2.87,199.0,-9999.0,'1111122,1111122,1111122' 
DISL,ioos:station:DISL:DISL:1,2013-08-02T23:00:00Z,30.2513,-88.0778,9.68,2.04,215.4,-9999.0,'1111122,1111122,1111122' 
DISL,ioos:station:DISL:DISL:1,2013-08-02T23:30:00Z,30.2513,-88.0778,9.68,2.46,206.7,-9999.0,'1111122,1111122,1111122' 
DISL,ioos:station:DISL:DISL:1,2013-08-03T00:00:00Z,30.2513,-88.0778,9.68,2.06,237.3,-9999.0,'1111122,1111122,1111122' 
DISL,ioos:station:DISL:DISL:1,2013-08-03T00:30:00Z,30.2513,-88.0778,9.68,2.06,224.3,-9999.0,'1111122,1111122,1111122' 
DISL,ioos:station:DISL:DISL:1,2013-08-03T01:00:00Z,30.2513,-88.0778,9.68,1.43,262.5,-9999.0,'1111122,1111122,1111122' 
DISL,ioos:station:DISL:DISL:1,2013-08-03T01:30:00Z,30.2513,-88.0778,9.68,1.4,237.7,-9999.0,'1111122,1111122,1111122' 
DISL,ioos:station:DISL:DISL:1,2013-08-03T02:00:00Z,30.2513,-88.0778,9.68,1.3,227.4,-9999.0,'1111122,1111122,1111122' 
DISL,ioos:station:DISL:DISL:1,2013-08-03T02:30:00Z,30.2513,-88.0778,9.68,1.37,218.3,-9999.0,'1111122,1111122,1111122' 
DISL,ioos:station:DISL:DISL:1,2013-08-03T03:00:00Z,30.2513,-88.0778,9.68,1.03,230.9,-9999.0,'1111122,1111122,1111122' 
DISL,ioos:station:DISL:DISL:1,2013-08-03T03:30:00Z,30.2513,-88.0778,9.68,1.16,217.3,-9999.0,'1111122,1111122,1111122' 
DISL,ioos:station:DISL:DISL:1,2013-08-03T04:00:00Z,30.2513,-88.0778,9.68,1.56,211.5,-9999.0,'1111122,1111122,1111122' 
DISL,ioos:station:DISL:DISL:1,2013-08-03T04:30:00Z,30.2513,-88.0778,9.68,2.11,211.5,-9999.0,'1111122,1111122,1111122' 
DISL,ioos:station:DISL:DISL:1,2013-08-03T05:00:00Z,30.2513,-88.0778,9.68,2.78,201.9,-9999.0,'1111122,1111122,1111122' 
DISL,ioos:station:DISL:DISL:1,2013-08-03T05:30:00Z,30.2513,-88.0778,9.68,2.29,212.2,-9999.0,'1111122,1111122,1111122' 
DISL,ioos:station:DISL:DISL:1,2013-08-03T06:00:00Z,30.2513,-88.0778,9.68,2.26,204.0,-9999.0,'1111122,1111122,1111122' 
DISL,ioos:station:DISL:DISL:1,2013-08-03T06:30:00Z,30.2513,-88.0778,9.68,2.18,227.8,-9999.0,'1111122,1111122,1111122' 
DISL,ioos:station:DISL:DISL:1,2013-08-03T07:00:00Z,30.2513,-88.0778,9.68,2.09,225.4,-9999.0,'1111122,1111122,1111122' 
DISL,ioos:station:DISL:DISL:1,2013-08-03T07:30:00Z,30.2513,-88.0778,9.68,1.76,236.1,-9999.0,'1111122,1111122,1111122' 
DISL,ioos:station:DISL:DISL:1,2013-08-03T08:00:00Z,30.2513,-88.0778,9.68,1.76,225.9,-9999.0,'1111122,1111122,1111122' 
DISL,ioos:station:DISL:DISL:1,2013-08-03T08:30:00Z,30.2513,-88.0778,9.68,1.9,234.0,-9999.0,'1111122,1111122,1111122' 
DISL,ioos:station:DISL:DISL:1,2013-08-03T09:00:00Z,30.2513,-88.0778,9.68,1.35,267.5,-9999.0,'1111122,1111122,1111122' 
DISL,ioos:station:DISL:DISL:1,2013-08-03T09:30:00Z,30.2513,-88.0778,9.68,1.4,275.8,-9999.0,'1111122,1111122,1111122' 
DISL,ioos:station:DISL:DISL:1,2013-08-03T10:00:00Z,30.2513,-88.0778,9.68,1.19,291.1,-9999.0,'1111122,1111122,1111122' 
DISL,ioos:station:DISL:DISL:1,2013-08-03T10:30:00Z,30.2513,-88.0778,9.68,1.54,278.3,-9999.0,'1111122,1111122,1111122' 
DISL,ioos:station:DISL:DISL:1,2013-08-03T11:00:00Z,30.2513,-88.0778,9.68,1.49,282.2,-9999.0,'1111122,1111122,1111122' 
DISL,ioos:station:DISL:DISL:1,2013-08-03T11:30:00Z,30.2513,-88.0778,9.68,1.53,284.5,-9999.0,'1111122,1111122,1111122' 
DISL,ioos:station:DISL:DISL:1,2013-08-03T12:00:00Z,30.2513,-88.0778,9.68,1.98,294.1,-9999.0,'1111122,1111122,1111122' 
DISL,ioos:station:DISL:DISL:1,2013-08-03T12:30:00Z,30.2513,-88.0778,9.68,2.32,341.1,-9999.0,'1111122,1111122,1111122' 
DISL,ioos:station:DISL:DISL:1,2013-08-03T13:00:00Z,30.2513,-88.0778,9.68,2.13,4.468,-9999.0,'1111122,1111122,1111122' 
DISL,ioos:station:DISL:DISL:1,2013-08-03T13:30:00Z,30.2513,-88.0778,9.68,1.9,8.74,-9999.0,'1111122,1111122,1111122' 
DISL,ioos:station:DISL:DISL:1,2013-08-03T14:00:00Z,30.2513,-88.0778,9.68,2.06,352.7,-9999.0,'1111122,1111122,1111122' 
DISL,ioos:station:DISL:DISL:1,2013-08-03T14:30:00Z,30.2513,-88.0778,9.68,2.08,11.58,-9999.0,'1111122,1111122,1111122' 
DISL,ioos:station:DISL:DISL:1,2013-08-03T15:00:00Z,30.2513,-88.0778,9.68,2.27,10.31,-9999.0,'1111122,1111122,1111122' 
DISL,ioos:station:DISL:DISL:1,2013-08-03T15:30:00Z,30.2513,-88.0778,9.68,1.42,4.661,-9999.0,'1111122,1111122,1111122' 
DISL,ioos:station:DISL:DISL:1,2013-08-03T16:00:00Z,30.2513,-88.0778,9.68,3.02,340.0,-9999.0,'1111122,1111122,1111122' 
DISL,ioos:station:DISL:DISL:1,2013-08-03T16:30:00Z,30.2513,-88.0778,9.68,1.44,346.5,-9999.0,'1111122,1111122,1111122' 
DISL,ioos:station:DISL:DISL:1,2013-08-03T17:00:00Z,30.2513,-88.0778,9.68,1.6,51.06,-9999.0,'1111122,1111122,1111122' 
DISL,ioos:station:DISL:DISL:1,2013-08-03T17:30:00Z,30.2513,-88.0778,9.68,1.82,113.7,-9999.0,'1111122,1111122,1111122' 
DISL,ioos:station:DISL:DISL:1,2013-08-03T18:00:00Z,30.2513,-88.0778,9.68,1.82,182.6,-9999.0,'1111122,1111122,1111122' 
DISL,ioos:station:DISL:DISL:1,2013-08-03T18:30:00Z,30.2513,-88.0778,9.68,2.31,224.2,-9999.0,'1111122,1111122,1111122' 
DISL,ioos:station:DISL:DISL:1,2013-08-03T19:00:00Z,30.2513,-88.0778,9.68,2.54,223.1,-9999.0,'1111122,1111122,1111122' 
DISL,ioos:station:DISL:DISL:1,2013-08-03T19:30:00Z,30.2513,-88.0778,9.68,2.27,229.0,-9999.0,'1111122,1111122,1111122' 
DISL,ioos:station:DISL:DISL:1,2013-08-03T20:00:00Z,30.2513,-88.0778,9.68,2.41,214.5,-9999.0,'1111122,1111122,1111122' 
DISL,ioos:station:DISL:DISL:1,2013-08-03T20:30:00Z,30.2513,-88.0778,9.68,2.21,207.4,-9999.0,'1111122,1111122,1111122' 
DISL,ioos:station:DISL:DISL:1,2013-08-03T21:00:00Z,30.2513,-88.0778,9.68,2.42,205.1,-9999.0,'1111122,1111122,1111122' 
DISL,ioos:station:DISL:DISL:1,2013-08-03T21:30:00Z,30.2513,-88.0778,9.68,2.55,203.3,-9999.0,'1111122,1111122,1111122' 
DISL,ioos:station:DISL:DISL:1,2013-08-03T22:00:00Z,30.2513,-88.0778,9.68,2.34,209.7,-9999.0,'1111122,1111122,1111122' 
DISL,ioos:station:DISL:DISL:1,2013-08-03T22:30:00Z,30.2513,-88.0778,9.68,2.38,227.3,-9999.0,'1111122,1111122,1111122' 
DISL,ioos:station:DISL:DISL:1,2013-08-03T23:00:00Z,30.2513,-88.0778,9.68,2.48,226.4,-9999.0,'1111122,1111122,1111122' 
DISL,ioos:station:DISL:DISL:1,2013-08-03T23:30:00Z,30.2513,-88.0778,9.68,2.43,245.1,-9999.0,'1111122,1111122,1111122' 
DISL,ioos:station:DISL:DISL:1,2013-08-04T00:00:00Z,30.2513,-88.0778,9.68,2.5,236.7,-9999.0,'1111122,1111122,1111122' 
DISL,ioos:station:DISL:DISL:1,2013-08-04T00:30:00Z,30.2513,-88.0778,9.68,2.22,258.2,-9999.0,'1111122,1111122,1111122' 
DISL,ioos:station:DISL:DISL:1,2013-08-04T01:00:00Z,30.2513,-88.0778,9.68,2.32,236.9,-9999.0,'1111122,1111122,1111122' 
DISL,ioos:station:DISL:DISL:1,2013-08-04T01:30:00Z,30.2513,-88.0778,9.68,2.69,241.5,-9999.0,'1111122,1111122,1111122' 
DISL,ioos:station:DISL:DISL:1,2013-08-04T02:00:00Z,30.2513,-88.0778,9.68,2.12,250.7,-9999.0,'1111122,1111122,1111122' 
DISL,ioos:station:DISL:DISL:1,2013-08-04T02:30:00Z,30.2513,-88.0778,9.68,1.96,262.4,-9999.0,'1111122,1111122,1111122' 
DISL,ioos:station:DISL:DISL:1,2013-08-04T03:00:00Z,30.2513,-88.0778,9.68,1.7,263.6,-9999.0,'1111122,1111122,1111122' 
DISL,ioos:station:DISL:DISL:1,2013-08-04T03:30:00Z,30.2513,-88.0778,9.68,1.96,250.5,-9999.0,'1111122,1111122,1111122' 
DISL,ioos:station:DISL:DISL:1,2013-08-04T04:00:00Z,30.2513,-88.0778,9.68,1.99,266.5,-9999.0,'1111122,1111122,1111122' 
DISL,ioos:station:DISL:DISL:1,2013-08-04T04:30:00Z,30.2513,-88.0778,9.68,1.8,258.9,-9999.0,'1111122,1111122,1111122' 
DISL,ioos:station:DISL:DISL:1,2013-08-04T05:00:00Z,30.2513,-88.0778,9.68,2.3,251.6,-9999.0,'1111122,1111122,1111122' 
DISL,ioos:station:DISL:DISL:1,2013-08-04T05:30:00Z,30.2513,-88.0778,9.68,1.97,267.4,-9999.0,'1111122,1111122,1111122' 
DISL,ioos:station:DISL:DISL:1,2013-08-04T06:00:00Z,30.2513,-88.0778,9.68,2.32,258.8,-9999.0,'1111122,1111122,1111122' 
DISL,ioos:station:DISL:DISL:1,2013-08-04T06:30:00Z,30.2513,-88.0778,9.68,2.15,268.3,-9999.0,'1111122,1111122,1111122' 
DISL,ioos:station:DISL:DISL:1,2013-08-04T07:00:00Z,30.2513,-88.0778,9.68,1.68,267.5,-9999.0,'1111122,1111122,1111122' 
DISL,ioos:station:DISL:DISL:1,2013-08-04T07:30:00Z,30.2513,-88.0778,9.68,2.0,287.1,-9999.0,'1111122,1111122,1111122' 
DISL,ioos:station:DISL:DISL:1,2013-08-04T08:00:00Z,30.2513,-88.0778,9.68,1.98,288.2,-9999.0,'1111122,1111122,1111122' 
DISL,ioos:station:DISL:DISL:1,2013-08-04T08:30:00Z,30.2513,-88.0778,9.68,1.96,283.3,-9999.0,'1111122,1111122,1111122' 
DISL,ioos:station:DISL:DISL:1,2013-08-04T09:00:00Z,30.2513,-88.0778,9.68,2.42,289.7,-9999.0,'1111122,1111122,1111122' 
DISL,ioos:station:DISL:DISL:1,2013-08-04T09:30:00Z,30.2513,-88.0778,9.68,2.34,291.5,-9999.0,'1111122,1111122,1111122' 
DISL,ioos:station:DISL:DISL:1,2013-08-04T10:00:00Z,30.2513,-88.0778,9.68,4.04,321.4,-9999.0,'1111122,1111122,1111122' 
DISL,ioos:station:DISL:DISL:1,2013-08-04T10:30:00Z,30.2513,-88.0778,9.68,5.41,332.2,-9999.0,'1111122,1111122,1111122' 
DISL,ioos:station:DISL:DISL:1,2013-08-04T11:00:00Z,30.2513,-88.0778,9.68,4.04,316.5,-9999.0,'1111122,1111122,1111122' 
DISL,ioos:station:DISL:DISL:1,2013-08-04T11:30:00Z,30.2513,-88.0778,9.68,4.03,314.0,-9999.0,'1111122,1111122,1111122' 
DISL,ioos:station:DISL:DISL:1,2013-08-04T12:00:00Z,30.2513,-88.0778,9.68,4.26,317.6,-9999.0,'1111122,1111122,1111122' 
DISL,ioos:station:DISL:DISL:1,2013-08-04T12:30:00Z,30.2513,-88.0778,9.68,5.31,328.9,-9999.0,'1111122,1111122,1111122' 
DISL,ioos:station:DISL:DISL:1,2013-08-04T13:00:00Z,30.2513,-88.0778,9.68,4.43,314.0,-9999.0,'1111122,1111122,1111122' 
DISL,ioos:station:DISL:DISL:1,2013-08-04T13:30:00Z,30.2513,-88.0778,9.68,5.62,327.5,-9999.0,'1111122,1111122,1111122' 
DISL,ioos:station:DISL:DISL:1,2013-08-04T14:00:00Z,30.2513,-88.0778,9.68,3.99,317.1,-9999.0,'1111122,1111122,1111122' 
DISL,ioos:station:DISL:DISL:1,2013-08-04T14:30:00Z,30.2513,-88.0778,9.68,4.56,308.7,-9999.0,'1111122,1111122,1111122' 
DISL,ioos:station:DISL:DISL:1,2013-08-04T15:00:00Z,30.2513,-88.0778,9.68,4.75,310.7,-9999.0,'1111122,1111122,1111122' 
DISL,ioos:station:DISL:DISL:1,2013-08-04T15:30:00Z,30.2513,-88.0778,9.68,4.24,308.2,-9999.0,'1111122,1111122,1111122' 
DISL,ioos:station:DISL:DISL:1,2013-08-04T16:00:00Z,30.2513,-88.0778,9.68,3.76,304.8,-9999.0,'1111122,1111122,1111122' 
DISL,ioos:station:DISL:DISL:1,2013-08-04T16:30:00Z,30.2513,-88.0778,9.68,4.01,300.9,-9999.0,'1111122,1111122,1111122' 
DISL,ioos:station:DISL:DISL:1,2013-08-04T17:00:00Z,30.2513,-88.0778,9.68,3.77,307.6,-9999.0,'1111122,1111122,1111122' 
DISL,ioos:station:DISL:DISL:1,2013-08-04T17:30:00Z,30.2513,-88.0778,9.68,3.37,309.4,-9999.0,'1111122,1111122,1111122' 
DISL,ioos:station:DISL:DISL:1,2013-08-04T18:00:00Z,30.2513,-88.0778,9.68,2.68,306.4,-9999.0,'1111122,1111122,1111122' 
DISL,ioos:station:DISL:DISL:1,2013-08-04T18:30:00Z,30.2513,-88.0778,9.68,2.16,306.2,-9999.0,'1111122,1111122,1111122' 
DISL,ioos:station:DISL:DISL:1,2013-08-04T19:00:00Z,30.2513,-88.0778,9.68,3.39,239.4,-9999.0,'1111122,1111122,1111122' 
DISL,ioos:station:DISL:DISL:1,2013-08-04T19:30:00Z,30.2513,-88.0778,9.68,3.34,227.8,-9999.0,'1111122,1111122,1111122' 
DISL,ioos:station:DISL:DISL:1,2013-08-04T20:00:00Z,30.2513,-88.0778,9.68,3.17,235.5,-9999.0,'1111122,1111122,1111122' 
DISL,ioos:station:DISL:DISL:1,2013-08-04T20:30:00Z,30.2513,-88.0778,9.68,3.43,242.8,-9999.0,'1111122,1111122,1111122' 
DISL,ioos:station:DISL:DISL:1,2013-08-04T21:00:00Z,30.2513,-88.0778,9.68,3.58,252.7,-9999.0,'1111122,1111122,1111122' 
DISL,ioos:station:DISL:DISL:1,2013-08-04T21:30:00Z,30.2513,-88.0778,9.68,3.52,258.2,-9999.0,'1111122,1111122,1111122' 
DISL,ioos:station:DISL:DISL:1,2013-08-04T22:00:00Z,30.2513,-88.0778,9.68,3.39,245.0,-9999.0,'1111122,1111122,1111122' 
DISL,ioos:station:DISL:DISL:1,2013-08-04T22:30:00Z,30.2513,-88.0778,9.68,3.59,255.4,-9999.0,'1111122,1111122,1111122' 
DISL,ioos:station:DISL:DISL:1,2013-08-04T23:00:00Z,30.2513,-88.0778,9.68,2.63,259.5,-9999.0,'1111122,1111122,1111122' 
DISL,ioos:station:DISL:DISL:1,2013-08-04T23:30:00Z,30.2513,-88.0778,9.68,2.9,265.3,-9999.0,'1111122,1111122,1111122' 
DISL,ioos:station:DISL:DISL:1,2013-08-05T00:00:00Z,30.2513,-88.0778,9.68,2.94,290.2,-9999.0,'1111122,1111122,1111122' 
DISL,ioos:station:DISL:DISL:1,2013-08-05T00:30:00Z,30.2513,-88.0778,9.68,7.37,81.7,-9999.0,'1111122,1111122,1111122' 
DISL,ioos:station:DISL:DISL:1,2013-08-05T01:00:00Z,30.2513,-88.0778,9.68,2.68,131.8,-9999.0,'1111122,1111122,1111122' 
DISL,ioos:station:DISL:DISL:1,2013-08-05T01:30:00Z,30.2513,-88.0778,9.68,1.16,211.9,-9999.0,'1111122,1111122,1111122' 
DISL,ioos:station:DISL:DISL:1,2013-08-05T02:00:00Z,30.2513,-88.0778,9.68,1.91,246.1,-9999.0,'1111122,1111122,1111122' 
DISL,ioos:station:DISL:DISL:1,2013-08-05T02:30:00Z,30.2513,-88.0778,9.68,1.35,241.4,-9999.0,'1111122,1111122,1111122' 
DISL,ioos:station:DISL:DISL:1,2013-08-05T03:00:00Z,30.2513,-88.0778,9.68,2.02,51.58,-9999.0,'1111122,1111122,1111122' 
DISL,ioos:station:DISL:DISL:1,2013-08-05T03:30:00Z,30.2513,-88.0778,9.68,2.73,72.6,-9999.0,'1111122,1111122,1111122' 
DISL,ioos:station:DISL:DISL:1,2013-08-05T04:00:00Z,30.2513,-88.0778,9.68,1.97,91.5,-9999.0,'1111122,1111122,1111122' 